Oakland, CA

12:26 AM PDT on August 29, 2016 (GMT -0700)
Metro Oakland International

Weather History for KOAK - March, 2013

Change the Weather History Date:

Sunday, March 10, 2013

  Actual Average Record
Temperature  
Mean Temperature 54 °F 54 °F  
Max Temperature 68 °F 62 °F 86 °F (2004)
Min Temperature 40 °F 46 °F 33 °F (1974)
Degree Days  
Heating Degree Days 11 11  
Month to date heating degree days 104 115  
Since 1 July heating degree days 2010 2137  
Cooling Degree Days 0 0  
Month to date cooling degree days 0 0  
Year to date cooling degree days 0 0  
Growing Degree Days 4 (Base 50)    
Moisture  
Dew Point 46 °F    
Average Humidity 71    
Maximum Humidity 100    
Minimum Humidity 42    
Precipitation  
Precipitation 0.00 in 0.11 in 0.48 in (1975)
Month to date precipitation 0.21 1.14  
Year to date precipitation 1.02 9.08  
Since 1 July precipitation 12.01  
Sea Level Pressure  
Sea Level Pressure 30.32 in    
Wind  
Wind Speed 5 mph (WNW)    
Max Wind Speed 13 mph    
Max Gust Speed 16 mph    
Visibility 10 miles    
Events      
T = Trace of Precipitation, MM = Missing Value Source: NWS Daily Summary

Daily Weather History Graph

Daily Weather History Graph

Search for Another Location

Airport or City:

Trip Planner

Search our weather history database for the weather conditions in past years. The results will help you decide how hot, cold, wet, or windy it might be!

Date:

Astronomy

Mar. 10, 2013 Rise Set
Actual Time 7:26 AM PDT 7:11 PM PDT
Civil Twilight 7:00 AM PDT 7:37 PM PDT
Nautical Twilight 6:30 AM PDT 8:08 PM PDT
Astronomical Twilight 5:59 AM PDT 8:38 PM PDT
Moon 6:29 AM PDT (3/10) 6:25 PM PDT (3/10)
Length of Visible Light 12h 37m
Length of Day
11h 44m
Waning Crescent, 1% of the Moon is Illuminated
Mar 10
Waning Crescent
Mar 11
New
Mar 19
First Quarter
Mar 27
Full
Apr 2
Last Quarter

Hourly Weather History & Observations

Time (PDT) Temp. Windchill Dew Point Humidity Pressure Visibility Wind Dir Wind Speed Gust Speed Precip Events Conditions
12:53 AM 46.0 °F 44.8 °F 46.0 °F 100% 30.32 in 10.0 mi East 3.5 mph - N/A   Clear
1:53 AM 45.0 °F 43.5 °F 44.1 °F 97% 30.33 in 10.0 mi ENE 3.5 mph - N/A   Clear
3:53 AM 44.1 °F 41.5 °F 43.0 °F 96% 30.32 in 10.0 mi ENE 4.6 mph - N/A   Clear
4:53 AM 44.6 °F - 44.6 °F 100% 30.32 in 10.0 mi Calm Calm - N/A   Clear
5:53 AM 43.0 °F - 43.0 °F 100% 30.33 in 10.0 mi Calm Calm - N/A   Clear
6:53 AM 42.1 °F 39.2 °F 42.1 °F 100% 30.34 in 10.0 mi NE 4.6 mph - N/A   Partly Cloudy
7:53 AM 43.0 °F - 43.0 °F 100% 30.35 in 10.0 mi Calm Calm - N/A   Scattered Clouds
8:53 AM 51.1 °F - 48.9 °F 92% 30.36 in 10.0 mi ESE 3.5 mph - N/A   Scattered Clouds
9:53 AM 54.0 °F - 50.0 °F 86% 30.37 in 10.0 mi Calm Calm - N/A   Scattered Clouds
10:53 AM 55.9 °F - 53.1 °F 90% 30.36 in 10.0 mi SW 5.8 mph - N/A   Scattered Clouds
11:53 AM 59.0 °F - 50.0 °F 72% 30.35 in 10.0 mi West 3.5 mph - N/A   Scattered Clouds
12:53 PM 61.0 °F - 46.0 °F 58% 30.34 in 10.0 mi West 6.9 mph - N/A   Scattered Clouds
1:53 PM 64.0 °F - 42.1 °F 45% 30.32 in 10.0 mi WSW 6.9 mph - N/A   Scattered Clouds
2:53 PM 64.0 °F - 44.1 °F 48% 30.30 in 10.0 mi WSW 5.8 mph - N/A   Scattered Clouds
3:53 PM 66.9 °F - 46.0 °F 47% 30.29 in 10.0 mi WNW 6.9 mph - N/A   Scattered Clouds
4:53 PM 66.9 °F - 43.0 °F 42% 30.29 in 10.0 mi NW 8.1 mph - N/A   Scattered Clouds
5:53 PM 64.9 °F - 43.0 °F 45% 30.28 in 10.0 mi WNW 8.1 mph - N/A   Scattered Clouds
6:53 PM 61.0 °F - 41.0 °F 48% 30.28 in 10.0 mi WNW 8.1 mph - N/A   Scattered Clouds
7:53 PM 55.0 °F - 51.1 °F 86% 30.29 in 10.0 mi WNW 10.4 mph - N/A   Scattered Clouds
8:53 PM 54.0 °F - 50.0 °F 86% 30.29 in 10.0 mi Calm Calm - N/A   Partly Cloudy
9:53 PM 54.0 °F - 51.1 °F 90% 30.29 in 10.0 mi WNW 4.6 mph - N/A   Partly Cloudy
10:53 PM 53.1 °F - 48.0 °F 83% 30.29 in 10.0 mi West 4.6 mph - N/A   Partly Cloudy
11:53 PM 51.1 °F - 50.0 °F 96% 30.29 in 10.0 mi WNW 5.8 mph - N/A   Partly Cloudy
12:53 AM 50.0 °F - 50.0 °F 100% 30.28 in 10.0 mi NNW 3.5 mph - N/A   Clear